CHINASAT 16 (SJ-13) (42662 NORAD) Tracking and Keplerian Element Data

This shows tracking and keplerian element data for the satellite.

Feedback or suggestion? Click here.




ElementValue
Catalog42662
NameCHINASAT 16 (SJ-13)
Epoch Orbit599
Epoch Day322.94795322
Epoch Year2018
RAAN94.13
Inclination0.1029
Eccentricity0.000779
Argument of Perigee143.2007
Mean Anonmoly272.4225
Mean Motion1.00270407
Decay Rate-3.43E-06
L11 42662U 17018A 18322.94795322 -.00000343 00000-0 00000-0 0 9995
L22 42662 0.1029 94.1300 0007790 143.2007 272.4225 1.00270407 5999

Live tracking and technical data element details for CHINASAT 16 (SJ-13) (NORAD 42662). CHINASAT 16 (SJ-13) can be tracked NOW for your location showing map with azimuth and elevation plus other details from your city location.

Track the satellite on the map from your city or location and see movement details for azimuth, elevation, latitude, longitude, range, height, and movement on the map or in text.







IsCatalogInMostPopularTable: catalog: 42662, numindb: 120
Update: records affected: 1



GetName: 42662 CHINASAT 16 (SJ-13)

Hit Count: updated at: Mon, 19 Nov 2018 11:46:04 GMT